Home   Weather   Waldkraiburg   Past weeks

Flag for Germany Past Weather in Waldkraiburg, Bavaria, Germany — Yesterday and Last 2 Weeks

Now
55 °F

Light rain. Mostly cloudy.


Feels Like: 51 °F
Forecast: 56 / 67 °F
Wind: 16 mph from Southwest

Location: Munich / Franz Josef Strauss Airport

Current Time: Jul 26, 2017 at 3:00:27 am

Latest Report: Jul 26, 2017 at 2:20 am


Visibility: N/A

Pressure: 29.71 "Hg

Humidity: 94%

Dew Point: 54 °F

Location of WaldkraiburgLocation

Past Weather in Waldkraiburg — Graph

°F

Waldkraiburg Temperature Yesterday

Maximum temperature yesterday: 64 °F (at 1:20 pm)
Minimum temperature yesterday: 54 °F (at 12:20 am)
Average temperature yesterday: 57 °F

High & Low Weather Summary for the Past Weeks

 TemperatureHumidityPressure
High90 °F (Jul 19, 3:20 pm)100% (Jul 12, 1:20 am)30.30 "Hg (Jul 12, 1:20 am)
Low46 °F (Jul 16, 5:50 am)27% (Jul 19, 4:50 pm)29.74 "Hg (Jul 26, 12:20 am)
Average65 °F70%30.03 "Hg
* Reported Jul 11 1:20 am — Jul 26 1:50 am, Waldkraiburg. Weather by CustomWeather, © 2017

Note: Actual official high and low records may vary slightly from our data, if they occured in-between our weather recording intervals... More about our weather records

Advertising

Waldkraiburg Weather History for the Previous 24 Hours

Scroll right to see more
 ConditionsComfort  
Time TempWeatherWind HumidityBarometerVisibility
1:50 am
Wed, Jul 26
55 °FLight rain. Mostly cloudy.15 mph94%29.74 "HgN/A
1:20 am55 °FLight rain. Overcast.18 mph88%29.74 "HgN/A
12:50 am55 °FLight rain. Overcast.18 mph94%29.74 "HgN/A
12:20 am55 °FLight rain. Mostly cloudy.18 mph94%29.74 "HgN/A
11:50 pm
Tue, Jul 25
55 °FLight rain. Mostly cloudy.15 mph94%29.77 "HgN/A
11:20 pm55 °FLight rain. Low clouds.15 mph94%29.77 "HgN/A
10:50 pm55 °FLight rain. Overcast.10 mph94%29.77 "HgN/A
10:20 pm54 °FLight rain. Mostly cloudy.9 mph94%29.80 "HgN/A
9:50 pm55 °FLight rain. Passing clouds.16 mph94%29.80 "HgN/A
9:25 pm55 °FRain. Partly cloudy.9 mph94%29.80 "Hg6 mi
8:50 pm55 °FLight rain. Broken clouds.10 mph88%29.80 "HgN/A
8:20 pm55 °FLight rain. Overcast.15 mph88%29.80 "HgN/A
7:50 pm55 °FLight rain. More clouds than sun.17 mph94%29.80 "HgN/A
7:20 pm55 °FLight rain. Partly sunny.16 mph88%29.80 "HgN/A
6:50 pm57 °FLight rain. Partly sunny.14 mph82%29.80 "HgN/A
6:20 pm57 °FLight rain. Broken clouds.14 mph82%29.80 "HgN/A
5:50 pm59 °FBroken clouds.15 mph77%29.80 "HgN/A
5:20 pm59 °FPartly sunny.14 mph77%29.80 "HgN/A
4:50 pm55 °FSprinkles. Partly sunny.8 mph94%29.80 "HgN/A
4:37 pm55 °FRain showers. Broken clouds.8 mph94%29.80 "Hg6 mi
4:20 pm57 °FThunderstorms. Partly sunny.15 mph88%29.80 "Hg5 mi
3:50 pm57 °FSprinkles. Scattered clouds.17 mph88%29.80 "HgN/A
3:20 pm57 °FBroken clouds.16 mph88%29.80 "HgN/A
2:50 pm59 °FSprinkles. Broken clouds.10 mph82%29.80 "HgN/A
2:32 pm57 °FThunderstorms. Broken clouds.18 mph82%29.80 "HgN/A
1:50 pm59 °FSprinkles. Broken clouds.13 mph82%29.80 "HgN/A
1:34 pm59 °FThunderstorms. Partly sunny.13 mph72%29.80 "HgN/A
1:20 pm64 °FBroken clouds.18 mph56%29.77 "HgN/A
12:50 pm63 °FBroken clouds.15 mph64%29.80 "HgN/A
12:20 pm63 °FScattered clouds.14 mph64%29.80 "HgN/A
11:50 am61 °FScattered clouds.18 mph68%29.80 "HgN/A
11:34 am61 °FBroken clouds.16 mph68%29.80 "HgN/A
11:20 am61 °FSprinkles. Broken clouds.18 mph68%29.80 "HgN/A
10:50 am59 °FPartly sunny.13 mph72%29.80 "HgN/A
10:20 am59 °FPartly sunny.16 mph77%29.83 "HgN/A
9:50 am57 °FPartly sunny.14 mph77%29.83 "HgN/A
9:20 am55 °FPartly sunny.15 mph82%29.83 "HgN/A
8:50 am55 °FPartly sunny.13 mph82%29.83 "HgN/A
8:20 am55 °FPartly sunny.12 mph82%29.83 "HgN/A
7:50 am55 °FPartly sunny.14 mph88%29.83 "HgN/A
7:20 am55 °FPartly sunny.12 mph88%29.83 "HgN/A
6:50 am55 °FPartly sunny.13 mph88%29.83 "HgN/A
6:24 am54 °FPartly sunny.13 mph94%29.80 "HgN/A
6:20 am54 °FBroken clouds.13 mph94%29.80 "HgN/A
5:50 am54 °FBroken clouds.10 mph94%29.83 "HgN/A
4:50 am54 °FPartly cloudy.12 mph94%29.83 "HgN/A
4:20 am54 °FPartly cloudy.7 mph88%29.83 "HgN/A
3:50 am54 °FClear.7 mph88%29.83 "Hg10 mi
3:20 am54 °FPassing clouds.8 mph88%29.83 "HgN/A
Weather by CustomWeather, © 2017

See weather overviewHow to use our weather pages